BEIDOU-3 M10 (C30)

Last updated on Sun Jun 21 2026 00:03:32 GMT+0000 (Coordinated Universal Time)

1 43246U 18029B 26170.03086451 -.00000080 00000+0 00000+0 0 9999 2 43246 54.1899 299.9108 0003781 40.0504 319.9737 1.86229038 55915
UTC large
Height (km)
Speed (km/s)
/
Latitude / Longitude
Inclination (degrees)
Orbital Period (minutes)
Azimuth
Elevation
Range (km)
Doppler Factor

Next 0 passes for location: London (51.5072 / 0.1276)

No passes found over London.
BEIDOU-3 M10 (C30)